STARLINK-11182 [DTC] (60399 NORAD) Tracking and Keplerian Element Data

This shows tracking and keplerian element data for the satellite.

Feedback or suggestion? Click here.




ElementValue
Catalog60399
NameSTARLINK-11182 [DTC]
Epoch Orbit1118
Epoch Day286.76084717
Epoch Year2024
RAAN94.6692
Inclination53.1572
Eccentricity8.57E-05
Argument of Perigee72.0906
Mean Anonmoly288.0205
Mean Motion15.69780118
Decay Rate6.564E-05
L11 60399U 24141B 24286.76084717 .00006564 00000+0 58825-4 0 9993
L22 60399 53.1572 94.6692 0000857 72.0906 288.0205 15.69780118 11184



Live tracking and technical data element details for STARLINK-11182 [DTC] (NORAD 60399). STARLINK-11182 [DTC] can be tracked NOW for your location showing map with azimuth and elevation plus other details from your city location.







IsCatalogInMostPopularTable: catalog: 60399, numindb: 8
Update: records affected: 1



GetName: 60399 STARLINK-11182 [DTC]

Hit Count: updated at: Wed, 04 Dec 2024 18:22:02 GMT